TimeEST,TemperatureF,Dew PointF,Humidity,Sea Level PressureIn,VisibilityMPH,Wind Direction,Wind SpeedMPH,Gust SpeedMPH,PrecipitationIn,Events,Conditions,WindDirDegrees,DateUTC
12:53 AM,10.9,3.9,73,30.09,10.0,Calm,Calm,-,N/A,,Overcast,0,2013-02-16 05:53:00
1:53 AM,10.0,5.0,80,30.08,10.0,Calm,Calm,-,N/A,,Overcast,0,2013-02-16 06:53:00
2:53 AM,10.0,7.0,87,30.07,10.0,Calm,Calm,-,N/A,,Overcast,0,2013-02-16 07:53:00
3:53 AM,8.1,5.0,87,30.06,10.0,Calm,Calm,-,N/A,,Overcast,0,2013-02-16 08:53:00
4:53 AM,7.0,3.9,87,30.05,10.0,Calm,Calm,-,N/A,,Scattered Clouds,0,2013-02-16 09:53:00
5:53 AM,1.9,1.0,96,30.06,2.5,Calm,Calm,-,N/A,,Mostly Cloudy,0,2013-02-16 10:53:00
6:02 AM,3.2,1.4,92,29.97,10.0,Calm,Calm,-,N/A,,Overcast,0,2013-02-16 11:02:00
6:53 AM,3.9,1.0,88,30.05,10.0,Calm,Calm,-,N/A,,Mostly Cloudy,0,2013-02-16 11:53:00
7:53 AM,1.9,-0.9,88,30.06,10.0,Calm,Calm,-,N/A,,Partly Cloudy,0,2013-02-16 12:53:00
8:41 AM,-0.4,-2.2,92,29.97,9.0,Calm,Calm,-,N/A,,Overcast,0,2013-02-16 13:41:00
8:53 AM,1.9,-0.9,88,30.06,7.0,Calm,Calm,-,N/A,,Overcast,0,2013-02-16 13:53:00
9:53 AM,7.0,7.0,100,30.06,9.0,Calm,Calm,-,0.00,,Overcast,0,2013-02-16 14:53:00
10:01 AM,6.8,6.8,100,29.98,10.0,Calm,Calm,-,N/A,,Overcast,0,2013-02-16 15:01:00
10:53 AM,10.0,8.1,92,30.06,2.5,Calm,Calm,-,0.00,Snow,Light Snow,0,2013-02-16 15:53:00
11:04 AM,12.2,8.6,85,29.98,7.0,Calm,Calm,-,0.00,,Mostly Cloudy,0,2013-02-16 16:04:00
11:53 AM,16.0,7.0,68,30.06,10.0,Calm,Calm,-,0.00,,Scattered Clouds,0,2013-02-16 16:53:00
12:53 PM,16.0,6.1,65,30.05,10.0,Calm,Calm,-,N/A,,Mostly Cloudy,0,2013-02-16 17:53:00
1:53 PM,17.1,6.1,62,30.04,10.0,NNE,4.6,-,N/A,,Overcast,30,2013-02-16 18:53:00
2:53 PM,16.0,8.1,71,30.04,6.0,Calm,Calm,-,0.00,Snow,Light Snow,0,2013-02-16 19:53:00
3:18 PM,15.8,10.4,79,29.96,2.5,Variable,6.9,-,0.00,Snow,Light Snow,0,2013-02-16 20:18:00
3:38 PM,15.8,10.4,79,29.97,1.5,North,5.8,-,0.00,Snow,Light Snow,360,2013-02-16 20:38:00
3:44 PM,15.8,10.4,79,29.97,0.8,Variable,4.6,-,0.00,Snow,Light Snow,0,2013-02-16 20:44:00
3:53 PM,15.1,10.0,80,30.05,0.8,NNE,5.8,-,0.00,Snow,Light Snow,20,2013-02-16 20:53:00
4:03 PM,14.0,8.6,79,29.97,1.5,NNE,5.8,-,0.00,Snow,Light Snow,20,2013-02-16 21:03:00
4:12 PM,14.0,8.6,79,29.98,2.5,NNE,8.1,-,0.00,Snow,Light Snow,30,2013-02-16 21:12:00
4:27 PM,14.0,6.8,73,29.98,3.0,NNE,5.8,-,0.00,Snow,Light Snow,30,2013-02-16 21:27:00
4:34 PM,14.0,8.6,79,29.98,5.0,NNE,5.8,-,0.00,,Haze,30,2013-02-16 21:34:00
4:46 PM,14.0,8.6,79,29.98,1.8,NNE,6.9,-,0.00,Snow,Light Snow,20,2013-02-16 21:46:00
4:53 PM,12.9,7.0,77,30.08,3.0,NNE,5.8,-,0.00,Snow,Light Snow,30,2013-02-16 21:53:00
5:53 PM,12.0,6.1,77,30.10,3.0,Variable,4.6,-,0.00,Snow,Light Snow,0,2013-02-16 22:53:00
6:53 PM,9.0,3.9,80,30.12,10.0,Calm,Calm,-,0.00,,Partly Cloudy,0,2013-02-16 23:53:00
7:53 PM,6.1,1.9,83,30.14,10.0,Calm,Calm,-,N/A,,Mostly Cloudy,0,2013-02-17 00:53:00
8:05 PM,6.8,1.4,79,30.04,10.0,Calm,Calm,-,N/A,,Scattered Clouds,0,2013-02-17 01:05:00
8:53 PM,5.0,-0.9,76,30.14,10.0,Calm,Calm,-,N/A,,Clear,0,2013-02-17 01:53:00
9:53 PM,-0.9,-4.0,87,30.16,10.0,Calm,Calm,-,N/A,,Clear,0,2013-02-17 02:53:00
10:53 PM,1.0,-4.0,79,30.15,10.0,Calm,Calm,-,N/A,,Clear,0,2013-02-17 03:53:00
11:53 PM,-9.0,-11.9,87,30.15,10.0,Calm,Calm,-,N/A,,Clear,0,2013-02-17 04:53:00